EWG7SV EDDH-LEIB

Flight info

Callsign EWG7SV
Flight time N/A
Altitude 23000
Route IDEKO8C IDEKO N850 PIROT/N0456F350 N850 XAROL/N0457F360 DCT BOMBI DCT GIGET DCT ABUKA DCT KRH DCT NATOR/N0458F370 DCT LUTIX DCT BENOT DCT NEMOS DCT GEVEA DCT INCUS DCT BALSI DCT RETNO DCT TUPOX DCT MTG DCT DIVKO DCT VATIR/N0463F310 DCT PIVUS DCT SULID DCT DIMIB DCT POS
Aircraft A320/M-SDE3FGHIRWY/LB1

Departure

Time 2026-05-06 10:34
Airport Hamburg Helmut Schmidt Airport (EDDH)

Arrival

Time N/A
Airport Ibiza Airport (LEIB)
Time Latitude Longitude Altitude Speed Heading
2026-05-06 09:57 53.62477 10.00445 49 ft 0 kts 243°
2026-05-06 10:23 53.62485 10.00474 49 ft 4 kts 249°
2026-05-06 10:23 53.62490 10.00504 49 ft 2 kts 276°
2026-05-06 10:24 53.62486 10.00521 49 ft 2 kts 320°
2026-05-06 10:24 53.62477 10.00532 46 ft 2 kts 332°
2026-05-06 10:24 53.62468 10.00541 48 ft 2 kts 334°
2026-05-06 10:24 53.62465 10.00543 48 ft 0 kts 334°
2026-05-06 10:28 53.62472 10.00538 46 ft 3 kts 334°
2026-05-06 10:28 53.62504 10.00510 46 ft 8 kts 333°
2026-05-06 10:28 53.62567 10.00457 48 ft 11 kts 333°
2026-05-06 10:29 53.62603 10.00350 48 ft 13 kts 257°
2026-05-06 10:29 53.62651 10.00238 48 ft 14 kts 334°
2026-05-06 10:29 53.62744 10.00160 48 ft 15 kts 333°
2026-05-06 10:29 53.62824 10.00084 48 ft 12 kts 317°
2026-05-06 10:30 53.62803 9.99960 47 ft 14 kts 213°
2026-05-06 10:30 53.62708 9.99873 43 ft 15 kts 208°
2026-05-06 10:30 53.62636 9.99746 47 ft 16 kts 256°
2026-05-06 10:30 53.62614 9.99549 47 ft 18 kts 259°
2026-05-06 10:31 53.62589 9.99329 47 ft 20 kts 259°
2026-05-06 10:31 53.62562 9.99094 43 ft 21 kts 259°
2026-05-06 10:31 53.62534 9.98846 46 ft 22 kts 259°
2026-05-06 10:31 53.62503 9.98581 45 ft 24 kts 259°
2026-05-06 10:32 53.62474 9.98314 47 ft 20 kts 259°
2026-05-06 10:32 53.62446 9.98078 45 ft 21 kts 259°
2026-05-06 10:32 53.62430 9.97854 44 ft 18 kts 284°
2026-05-06 10:32 53.62519 9.97793 41 ft 14 kts 24°
2026-05-06 10:33 53.62599 9.97934 41 ft 32 kts 50°
2026-05-06 10:33 53.62908 9.98561 44 ft 104 kts 50°
2026-05-06 10:33 53.63476 9.99709 54 ft 155 kts 50°
2026-05-06 10:33 53.64169 10.01135 576 ft 156 kts 48°
2026-05-06 10:34 53.64862 10.02554 1201 ft 157 kts 47°
2026-05-06 10:34 53.65551 10.03959 1816 ft 151 kts 48°
2026-05-06 10:34 53.66238 10.05357 2245 ft 164 kts 47°
2026-05-06 10:34 53.67031 10.06960 2411 ft 195 kts 48°
2026-05-06 10:35 53.67946 10.08816 2758 ft 218 kts 49°
2026-05-06 10:35 53.69114 10.10546 3293 ft 228 kts 18°
2026-05-06 10:35 53.70647 10.10753 4136 ft 223 kts 341°
2026-05-06 10:35 53.71968 10.09323 4529 ft 238 kts 304°
2026-05-06 10:36 53.72839 10.06815 5083 ft 254 kts 295°
2026-05-06 10:36 53.73637 10.04112 6033 ft 259 kts 294°
2026-05-06 10:36 53.74406 10.01322 6978 ft 264 kts 290°
2026-05-06 10:36 53.74781 9.98281 7870 ft 266 kts 270°
2026-05-06 10:37 53.74461 9.95231 8696 ft 271 kts 248°
2026-05-06 10:37 53.73380 9.92599 9495 ft 279 kts 223°
2026-05-06 10:37 53.71682 9.90963 10249 ft 288 kts 204°
2026-05-06 10:37 53.69704 9.89866 10542 ft 312 kts 195°
2026-05-06 10:38 53.67501 9.89060 10757 ft 335 kts 194°
2026-05-06 10:38 53.65138 9.88276 10955 ft 357 kts 193°
2026-05-06 10:38 53.62669 9.87496 11535 ft 364 kts 193°
2026-05-06 10:38 53.60166 9.86714 12153 ft 368 kts 193°
2026-05-06 10:39 53.57634 9.85916 12782 ft 372 kts 193°
2026-05-06 10:39 53.55073 9.85096 13455 ft 376 kts 193°
2026-05-06 10:39 53.52496 9.84261 14120 ft 379 kts 193°
2026-05-06 10:39 53.49886 9.83412 14713 ft 382 kts 193°
2026-05-06 10:40 53.47266 9.82559 15294 ft 386 kts 193°
2026-05-06 10:40 53.44613 9.81694 15887 ft 389 kts 193°
2026-05-06 10:40 53.41943 9.80824 16497 ft 393 kts 193°
2026-05-06 10:40 53.39244 9.79947 17096 ft 397 kts 192°
2026-05-06 10:41 53.36521 9.79069 17724 ft 401 kts 193°
2026-05-06 10:41 53.33766 9.78187 18348 ft 404 kts 193°
2026-05-06 10:41 53.30990 9.77297 18960 ft 408 kts 193°
2026-05-06 10:41 53.28195 9.76396 19530 ft 411 kts 193°
2026-05-06 10:42 53.25373 9.75491 20054 ft 414 kts 193°
2026-05-06 10:42 53.22531 9.74581 20597 ft 418 kts 193°
2026-05-06 10:42 53.19663 9.73666 21071 ft 421 kts 193°
2026-05-06 10:42 53.16778 9.72742 21546 ft 424 kts 193°
2026-05-06 10:43 53.13869 9.71813 21994 ft 426 kts 193°
2026-05-06 10:43 53.10945 9.70880 22423 ft 429 kts 193°
2026-05-06 10:43 53.08004 9.69941 22813 ft 432 kts 193°
2026-05-06 10:44 53.02060 9.68048 23583 ft 437 kts 193°
2026-05-06 10:44 52.99059 9.67094 23976 ft 440 kts 193°
2026-05-06 10:44 52.96045 9.66140 24352 ft 442 kts 193°
2026-05-06 10:44 52.93016 9.65182 24685 ft 444 kts 193°
2026-05-06 10:45 52.89970 9.64218 25031 ft 447 kts 193°
2026-05-06 10:45 52.86914 9.63252 25361 ft 449 kts 193°
2026-05-06 10:45 52.83872 9.62291 25692 ft 451 kts 193°
2026-05-06 10:45 52.80781 9.61317 26039 ft 453 kts 192°
2026-05-06 10:46 52.77675 9.60343 26367 ft 455 kts 192°
2026-05-06 10:46 52.74560 9.59368 26779 ft 455 kts 193°
2026-05-06 10:46 52.71452 9.58397 27233 ft 454 kts 192°
2026-05-06 10:46 52.68349 9.57433 27699 ft 453 kts 192°
2026-05-06 10:47 52.65246 9.56469 28160 ft 453 kts 193°
2026-05-06 10:47 52.62156 9.55503 28629 ft 452 kts 192°
2026-05-06 10:47 52.59068 9.54542 29083 ft 451 kts 192°
2026-05-06 10:47 52.55990 9.53590 29520 ft 450 kts 192°
2026-05-06 10:48 52.52918 9.52636 29947 ft 449 kts 192°
2026-05-06 10:48 52.49854 9.51679 30392 ft 448 kts 193°
2026-05-06 10:48 52.46789 9.50726 30826 ft 448 kts 192°
2026-05-06 10:48 52.43726 9.49779 31267 ft 447 kts 192°
2026-05-06 10:49 52.40673 9.48834 31697 ft 446 kts 192°
2026-05-06 10:49 52.37623 9.47896 32119 ft 445 kts 192°
2026-05-06 10:49 52.34581 9.46961 32521 ft 445 kts 192°
2026-05-06 10:49 52.31540 9.46024 32940 ft 444 kts 192°
2026-05-06 10:50 52.28511 9.45092 33322 ft 443 kts 192°
2026-05-06 10:50 52.25475 9.44161 33682 ft 443 kts 192°
2026-05-06 10:50 52.22443 9.43233 34081 ft 443 kts 192°
2026-05-06 10:50 52.19422 9.42312 34487 ft 442 kts 193°
2026-05-06 10:51 52.16406 9.41396 34845 ft 441 kts 192°
2026-05-06 10:51 52.13385 9.40477 34984 ft 442 kts 192°
2026-05-06 10:51 52.10331 9.39544 35017 ft 449 kts 192°
2026-05-06 10:52 52.04139 9.37653 35010 ft 455 kts 192°
2026-05-06 10:52 51.97943 9.35781 35007 ft 456 kts 192°
2026-05-06 10:53 51.91686 9.33899 35008 ft 457 kts 192°
2026-05-06 10:53 51.85436 9.32012 35009 ft 457 kts 192°
2026-05-06 10:54 51.79178 9.30118 35005 ft 457 kts 192°
2026-05-06 10:54 51.72926 9.28242 35010 ft 457 kts 192°
2026-05-06 10:55 51.66662 9.26382 35016 ft 458 kts 192°
2026-05-06 10:55 51.60401 9.24525 35014 ft 457 kts 192°
2026-05-06 10:56 51.55201 9.22979 35014 ft 457 kts 192°
2026-05-06 10:56 51.48936 9.21122 35017 ft 457 kts 192°
2026-05-06 10:57 51.42678 9.19273 35013 ft 457 kts 192°
2026-05-06 10:57 51.36414 9.17426 35013 ft 457 kts 192°